CZ-6A DEB, 60860

Orbit data source: Space-Track

CZ-6A DEB, 60860 is space debris in LEO originally from a launch on Tue, 06 Aug 2024 UTC launched from the Taiyaun Space Center, China (TSC). Debris objects in space refer to the collection of defunct objects orbiting the Earth. Examples of debris include non-operational satellites, rocket bodies, and fragments generated from explosions, collisions, or faulty payload assembly.

Loading next visibility...
Identifier
60860, 2024-140JP
Orbit
LEO
Country
Flag of CNCN / PRC
Related business
Manufacturer
SAST
Mission
Spacecraft
Bus & Motor
Unknown
Mass
Unknown
Launch date (UTC)
2024-08-06 (2 years ago)
Launch vehicle
Unknown
Launch site
Taiyaun Space Center, China (TSC)
Object type
Payload
Rocket body
Debris
Shape & HBR
Unknown shape, 0.2 m
Radar Cross Section
Medium (>0.1 m² and <1 m²)

Expand to show TLE details & history
Last TLE update: 13 hours ago

TLE from 13 hours ago
0 CZ-6A DEB
1 60860U 24140JP  26171.30297898  .00000258  00000-0  12452-3 0  9996
2 60860  89.0503 278.9038 0067291 186.0543 173.9839 14.14497386 95254
Epoch: 2026-06-20T07:16Z
TLE epoch observation values (Epoch: 2026-06-20T07:16:17.383Z)
Latitude
-0.00001°
Longitude
-98.68817°
Altitude
895.413 km
Speed
7.38 km/s
True Right ascension
18h 35m 36s
True Declination
0° 00' 00"
Sunlit
Object was in full shadow at epoch
Visualization orbit readout
Latitude
Unknown
Longitude
Unknown
Altitude
Unknown
Speed
Unknown
Apparent Right ascension
Unknown
Apparent Declination
Unknown
Sunlit
N/A
Visualization observer readout
Local Sidereal Time
07:15:53
Azimuth
Unknown
Elevation
Unknown
Doppler factor
Unknown
Orbital elements
Apogee altitude
889.559 km
Perigee altitude
792.403 km
Semi-major axis
7,219.118 km
Eccentricity
0.00673
Inclination
89.0503°
RAAN
278.9038°
Arg. of periapsis
186.0543°
True anomaly
174.06405°
Mean anomaly
173.9839°
Eccentric anomaly
174.02404°
Mean motion
3.53848 °/min
Orbital period
101.74 mins
BSTAR
0.00012452
Loading maneuver chart data...
Computing Atmospheric mass density...
Loading historical data...
Loading historical data...
Loading historical data...
Loading historical data...
Loading historical data...
Loading historical data...
Loading historical data...

Documentation

Showing up to 5 results
|